Mobile Downtown, AL

3:44 AM CDT on June 28, 2017 (GMT -0500)
Mobile Downtown

Weather History for KBFM - April, 2014

Change the Weather History Date:

Friday, April 18, 2014

  Actual Average Record
Temperature  
Mean Temperature 60 °F -  
Max Temperature 64 °F 74 °F 84 °F (2006)
Min Temperature 57 °F 56 °F 42 °F (1997)
Degree Days  
Heating Degree Days 4    
Growing Degree Days 10 (Base 50)    
Moisture  
Dew Point 57 °F    
Average Humidity 89    
Maximum Humidity 94    
Minimum Humidity 75    
Precipitation  
Precipitation 0.04 in - - ()
Sea Level Pressure  
Sea Level Pressure 30.09 in    
Wind  
Wind Speed 12 mph (NNE)    
Max Wind Speed 20 mph    
Max Gust Speed 29 mph    
Visibility 8 miles    
Events Rain    
Averages and records for this station are not official NWS values.
T = Trace of Precipitation, MM = Missing Value Source: NWS Daily Summary

Daily Weather History Graph

Daily Weather History Graph

Search for Another Location

Airport or City:

Trip Planner

Search our weather history database for the weather conditions in past years. The results will help you decide how hot, cold, wet, or windy it might be!

Date:

Astronomy

Apr. 18, 2014 Rise Set
Actual Time 6:21 AM CDT 7:22 PM CDT
Civil Twilight 5:56 AM CDT 7:47 PM CDT
Nautical Twilight 5:27 AM CDT 8:16 PM CDT
Astronomical Twilight 4:57 AM CDT 8:46 PM CDT
Moon 10:57 PM CDT (4/18) 8:52 AM CDT (4/18)
Length of Visible Light 13h 50m
Length of Day
13h 00m
Waning Gibbous, 87% of the Moon is Illuminated
Apr 18
Waning Gibbous
Apr 22
Last Quarter
Apr 29
New
May 6
First Quarter
May 14
Full

Hourly Weather History & Observations

Time (CDT) Temp. Dew Point Humidity Pressure Visibility Wind Dir Wind Speed Gust Speed Precip Events Conditions
12:11 AM 61.0 °F 59.0 °F 93% 30.18 in 6.0 mi ENE 8.1 mph - N/A Rain Rain
12:31 AM 61.0 °F 59.0 °F 93% 30.17 in 7.0 mi NE 10.4 mph - N/A Rain Rain
12:53 AM 61.0 °F 59.0 °F 93% 30.16 in 7.0 mi NE 12.7 mph - N/A Rain Rain
1:22 AM 61.0 °F 59.0 °F 93% 30.15 in 8.0 mi NE 11.5 mph - N/A Rain Rain
1:30 AM 61.0 °F 59.0 °F 93% 30.15 in 8.0 mi NE 10.4 mph - N/A Rain Light Rain
1:51 AM 60.8 °F 59.0 °F 94% 30.13 in 8.0 mi NE 12.7 mph - N/A Rain Light Rain
1:53 AM 61.0 °F 59.0 °F 93% 30.13 in 8.0 mi NE 11.5 mph - N/A Rain Light Rain
2:17 AM 61.0 °F 59.0 °F 93% 30.11 in 7.0 mi NE 12.7 mph - 0.00 in Rain Light Rain
2:28 AM 61.0 °F 59.0 °F 93% 30.11 in 7.0 mi NNE 12.7 mph - 0.00 in Rain Light Rain
2:53 AM 61.0 °F 59.0 °F 93% 30.10 in 5.0 mi NE 10.4 mph - N/A Rain Rain
3:13 AM 61.0 °F 59.0 °F 93% 30.08 in 6.0 mi NE 12.7 mph - N/A Rain Rain
3:27 AM 61.0 °F 59.0 °F 93% 30.07 in 6.0 mi NE 15.0 mph - N/A Rain Rain
3:53 AM 61.0 °F 59.0 °F 93% 30.07 in 8.0 mi NE 12.7 mph - N/A Rain Rain
4:32 AM 61.0 °F 59.0 °F 93% 30.06 in 7.0 mi NE 11.5 mph - N/A Rain Rain
4:45 AM 61.0 °F 59.0 °F 93% 30.06 in 8.0 mi NE 13.8 mph - N/A Rain Rain
4:53 AM 61.0 °F 59.0 °F 93% 30.06 in 9.0 mi NE 13.8 mph - N/A Rain Light Rain
5:19 AM 61.0 °F 59.0 °F 93% 30.05 in 7.0 mi NE 12.7 mph - N/A Rain Rain
5:53 AM 61.0 °F 57.9 °F 90% 30.05 in 6.0 mi NE 11.5 mph - N/A Rain Heavy Rain
6:05 AM 60.1 °F 57.9 °F 93% 30.05 in 4.0 mi NE 13.8 mph - N/A Rain Heavy Rain
6:53 AM 60.1 °F 57.9 °F 93% 30.07 in 4.0 mi North 10.4 mph - N/A Rain Rain
7:53 AM 60.1 °F 57.9 °F 93% 30.08 in 10.0 mi North 13.8 mph 19.6 mph N/A Rain Light Rain
8:53 AM 60.1 °F 57.0 °F 90% 30.09 in 10.0 mi North 13.8 mph 17.3 mph 0.01 in Rain Light Rain
9:53 AM 60.1 °F 57.0 °F 90% 30.09 in 9.0 mi North 12.7 mph 20.7 mph 0.03 in Rain Light Rain
10:53 AM 60.1 °F 57.0 °F 90% 30.09 in 10.0 mi North 13.8 mph 24.2 mph 0.00 in   Overcast
11:53 AM 61.0 °F 57.0 °F 87% 30.08 in 10.0 mi North 17.3 mph 28.8 mph N/A   Overcast
12:53 PM 62.1 °F 57.0 °F 84% 30.06 in 10.0 mi North 15.0 mph 20.7 mph N/A   Overcast
1:53 PM 64.0 °F 55.9 °F 75% 30.05 in 10.0 mi North 18.4 mph 25.3 mph N/A   Overcast
2:53 PM 62.1 °F 55.0 °F 78% 30.05 in 10.0 mi North 15.0 mph - N/A   Overcast
4:53 PM 61.0 °F 54.0 °F 78% 30.04 in 10.0 mi North 15.0 mph 24.2 mph N/A   Overcast
5:53 PM 61.0 °F 54.0 °F 78% 30.04 in 10.0 mi North 15.0 mph 24.2 mph N/A   Overcast
7:53 PM 59.0 °F 55.0 °F 87% 30.07 in 10.0 mi North 15.0 mph 24.2 mph N/A   Overcast
8:02 PM 59.0 °F 55.0 °F 87% 30.07 in 10.0 mi North 17.3 mph 24.2 mph N/A   Overcast
8:12 PM 59.0 °F 54.0 °F 83% 30.07 in 10.0 mi North 13.8 mph - N/A   Overcast
8:44 PM 59.0 °F 53.1 °F 81% 30.08 in 10.0 mi North 17.3 mph - N/A   Overcast
8:53 PM 59.0 °F 53.1 °F 81% 30.09 in 10.0 mi North 19.6 mph 26.5 mph N/A   Overcast
10:53 PM 59.0 °F 53.1 °F 81% 30.10 in 10.0 mi North 11.5 mph 20.7 mph N/A   Overcast
11:34 PM 57.9 °F 53.1 °F 84% 30.10 in 10.0 mi North 9.2 mph - N/A   Mostly Cloudy
11:53 PM 57.9 °F 52.0 °F 81% 30.09 in 10.0 mi North 13.8 mph - N/A   Overcast